Wind_Speed
11 15 15 21 20 17 16 14 12 13 15 15 16 15 13 13 13 11 11 10 10 11 12 11 11 12 14
12 14 13 19 20 18 15 13 15 13 12 12 12 12 12 13 11 12 11 11 11 11 10 10 11 13 15
10 14 8 17 19 17 17 16 14 13 13 12 12 9 10 10 11 12 12 11 11 11 10 10 12 13 13
10 13 12 18 19 19 15 13 13 13 12 12 12 12 11 10 11 12 12 12 12 11 11 13 14 13 13
15 9 10 16 19 18 14 13 12 11 11 13 14 13 13 14 15 16 15 13 12 12 13 14 13 14 15
12 13 14 16 20 19 14 7 4 12 11 11 12 12 13 15 12 12 13 12 13 15 14 13 13 15 16
22 20 20 22 23 21 16 9 4 3 7 5 7 9 8 9 11 13 15 17 18 15 12 13 15 16 17
11 12 11 18 20 17 14 10 7 5 3 2 3 6 7 10 14 16 15 11 9 11 12 14 18 17 21
14 12 16 16 14 15 15 13 3 4 3 2 2 7 10 10 5 5 5 7 10 13 17 21 20 23 27
22 21 18 15 13 8 11 10 5 2 5 2 2 4 5 5 4 7 10 12 15 18 20 22 21 22 26
21 18 15 13 11 9 6 4 4 2 4 3 2 3 3 7 11 12 15 14 22 24 21 20 18 17 21
16 13 11 9 7 6 5 4 2 2 4 5 4 5 4 5 9 12 21 26 22 24 24 21 22 23 23
9 7 6 6 6 5 3 2 3 4 6 8 9 10 12 11 11 19 18 21 28 15 27 27 27 26 30
5 5 5 5 5 5 5 6 8 8 6 6 8 11 15 18 19 28 28 14 27 30 30 29 30 29 30
3 5 5 7 8 8 9 9 10 9 11 9 9 11 15 18 23 27 29 28 29 30 29 32 33 29 32
6 8 9 10 11 12 12 13 16 18 18 17 16 16 19 20 19 24 23 29 30 30 30 27 33 34 34
10 11 13 14 14 16 16 17 20 21 22 20 18 16 3 6 15 15 21 28 31 29 26 28 30 38 37
Wind_Direction
218 214 205 206 199 201 204 201 201 204 215 225 238 243 251 257 256 241 241 246 254 255 259 260 266 273 275
189 188 201 200 200 198 199 198 207 216 224 233 243 252 250 255 247 236 242 253 255 256 263 259 264 271 277
164 183 178 183 179 183 188 199 209 219 228 236 240 239 250 249 241 241 258 263 258 256 265 261 270 271 271
157 162 169 172 183 179 185 200 214 226 234 239 234 228 233 239 245 247 252 249 256 257 261 271 273 275 269
142 148 153 169 182 189 191 205 220 235 240 240 242 248 253 255 260 258 256 256 258 258 270 267 266 270 277
153 163 180 187 186 185 182 179 210 229 232 245 251 259 261 266 256 251 254 261 261 266 265 257 269 277 283
176 180 185 196 188 184 187 178 178 176 202 257 251 259 248 255 260 257 261 269 270 262 244 270 284 283 283
192 191 192 182 186 187 181 168 154 166 203 272 268 273 271 277 275 273 273 272 251 231 258 288 292 283 288
130 132 136 147 160 163 158 152 136 188 201 257 281 312 304 299 283 267 249 234 241 266 282 293 291 287 287
115 119 127 135 141 155 159 164 131 157 205 237 281 332 314 298 285 292 281 277 281 286 291 292 290 288 288
121 122 125 130 132 136 138 148 149 140 186 224 247 292 265 301 297 293 291 298 305 307 308 306 298 293 293
122 120 121 123 128 138 149 155 173 196 214 243 258 258 269 284 281 294 301 306 311 309 309 311 300 295 289
117 126 146 159 173 183 195 224 247 260 263 267 271 270 268 253 277 286 305 306 306 298 310 312 307 305 305
156 167 185 202 217 242 260 269 281 275 254 266 274 276 275 272 276 284 294 284 300 307 314 310 310 305 301
222 231 239 245 251 259 268 270 263 272 275 279 287 289 288 287 283 286 292 296 301 305 310 308 305 300 302
279 273 274 276 279 273 268 268 274 281 284 295 300 291 289 292 270 273 286 292 302 305 303 292 293 305 309
297 294 291 288 280 279 276 275 278 285 291 295 292 279 246 275 286 270 281 292 295 292 288 282 281 293 301
Height
784 789 791 795 797 802 808 809 810 814 817 819 823 824 822 824 826 827 829 828 829 830 830 829 829 830 833
783 785 790 793 795 800 803 806 809 813 815 817 819 818 819 821 822 825 825 824 825 825 825 824 826 827 828
777 783 785 789 792 797 800 805 809 812 814 814 814 815 815 818 820 821 821 821 822 821 820 820 823 822 822
773 778 782 785 790 795 800 803 806 808 809 811 813 813 814 815 816 816 816 816 817 816 817 818 819 818 818
770 776 780 786 787 791 797 801 803 805 806 808 810 809 809 810 810 811 812 812 812 813 814 814 815 814 813
767 774 778 780 784 790 795 798 802 802 803 806 805 804 806 807 807 808 809 809 810 810 810 811 810 809 807
764 768 772 775 780 789 792 795 798 800 802 802 802 803 804 804 804 804 805 805 805 806 806 806 805 803 801
766 769 772 776 782 786 791 795 799 800 801 802 802 802 801 801 800 800 800 799 801 802 802 801 799 797 795
769 772 776 780 784 787 791 794 797 799 799 801 801 799 798 797 797 797 797 797 798 798 798 796 793 791 787
774 777 781 784 787 790 791 793 794 798 800 801 800 800 798 796 795 795 795 795 794 793 792 789 786 783 779
778 782 785 787 789 791 792 793 795 797 798 799 799 800 800 797 793 792 792 790 789 786 784 782 779 778 774
783 785 787 789 791 792 793 794 795 796 796 797 797 798 798 797 793 788 787 784 782 779 777 775 774 771 769
787 788 790 791 792 793 793 794 794 794 794 794 794 795 795 794 791 785 783 777 776 773 772 768 765 762 758
789 790 791 792 792 792 792 792 792 791 792 792 792 791 790 788 787 781 779 778 771 768 764 760 757 754 751
790 791 791 791 791 791 791 790 790 789 789 789 789 787 785 784 780 776 772 769 766 762 759 753 749 746 742
790 790 790 790 789 789 788 787 786 785 785 784 784 783 780 776 774 770 768 764 760 757 754 749 740 737 733
788 788 788 787 786 785 785 784 783 782 781 780 779 778 776 772 767 768 764 758 754 749 747 743 736 728 724